Regional Weather Roundup
Issued by NWS Sioux Falls, SD

Home | Current Version | Previous Version | Graphics & Text | Print | Product List | Glossary Off
Versions: 1 2 3 4 5 6 7 8 9 10 11 12 13 14 15 16 17 18 19 20 21 22 23 24 25 26 27 28 29 30 31 32 33 34 35 36 37 38 39 40 41 42 43 44 45 46 47 48 49 50

000
ASUS43 KFSD 161010
RWRFSD

WEATHER ROUNDUP FOR SE SOUTH DAKOTA/SW MINNESOTA/NW IOWA
NATIONAL WEATHER SERVICE SIOUX FALLS SD
400 AM CST MON JAN 16 2017

NOTE: "FAIR" INDICATES FEW OR NO CLOUDS BELOW 12,000 FEET WITH NO
SIGNIFICANT WEATHER AND OR OBSTRUCTIONS TO VISIBILITY.


SDZ038>040-050-052>070-161100-
SOUTHEAST SOUTH DAKOTA

CITY           SKY/WX    TMP DP  RH WIND       PRES   REMARKS
BROOKINGS      CLOUDY    16  13  88 SE5       30.10S WCI   9
CHAMBERLAIN    CLOUDY    18  14  86 W3        30.08F
HURON          CLOUDY     9   6  88 CALM      30.11R
MADISON          N/A     18  18 100 S3          N/A
MITCHELL       CLOUDY    20  18  92 S5        30.11F WCI  13
SIOUX FALLS    CLOUDY    24  19  81 NE3       30.11F
WINNER         CLOUDY    20  16  84 CALM      30.07S
YANKTON        PTCLDY    28  27  93 E5        30.09F WCI  23
$$

MNZ071-072-080-081-089-090-097-098-161100-
SOUTHWEST MINNESOTA

CITY           SKY/WX    TMP DP  RH WIND       PRES   REMARKS
FAIRMONT       CLOUDY    26  23  88 S7        30.16F WCI  18
JACKSON        CLOUDY    27  21  80 CALM      30.14S
LUVERNE        CLOUDY    19  16  86 NE3       30.13S
MARSHALL       CLOUDY    23  16  74 S6        30.13F WCI  16
MONTEVIDEO     CLOUDY    16  12  86 S3        30.14S
PIPESTONE      CLOUDY    25  19  80 S6        30.10F WCI  18
REDWOOD FALLS  CLOUDY    19  15  84 S7        30.14F WCI  10
TRACY          CLOUDY    25  20  80 S9        30.12S WCI  16
WINDOM         CLOUDY    23  19  86 S5        30.13F WCI  17
WORTHINGTON    CLOUDY    25  22  88 S5        30.12F WCI  19
$$

IAZ001>003-012>014-020>022-031-032-NEZ013-014-SDZ071-161100-
NORTHWEST IOWA

CITY           SKY/WX    TMP DP  RH WIND       PRES   REMARKS
CHEROKEE       MIX PCPN  31  31 100 CALM      30.11F
DENISON        CLOUDY    32  32 100 E9        30.08F WCI  24
ESTHERVILLE    CLOUDY    25  25 100 SE5       30.13F WCI  19
LE MARS        CLOUDY    30  30 100 CALM      30.12F FOG
ORANGE CITY    CLOUDY    28  28 100 E3        30.11F FOG
SHELDON        CLOUDY    27  27 100 NE5       30.10F WCI  21
SIOUX CITY     CLOUDY    33  31  92 E3        30.10F FOG
SPENCER        CLOUDY    27  26  96 NE5       30.13F FOG     WCI  22
STORM LAKE     CLOUDY    30  30 100 E8        30.09F FOG     WCI  23
$$

ABBREVIATIONS USED IN REMARKS
   TC - TEMPERATURE IN CELSIUS
  WCI - WIND CHILL INDEX
   HX - HEAT INDEX
  VSB - VISIBILITY




USA.gov is the U.S. government's official web portal to all federal, state and local government web resources and services.